Location: Maiden
(35.5760°N, 81.2120°W)
Time: 03:23:36
(UTC-04:00)

ISS - Visible Passes

Search period start: 29 March 2015 00:00
Search period end: 08 April 2015 00:00
Orbit: 396 x 406 km, 51.6° (Epoch: 28 March)

Date Brightness Start Highest point End Pass type
(mag) Time Alt. Az. Time Alt. Az. Time Alt. Az.
29 Mar -2.5 06:27:42 10° NW 06:30:52 52° NE 06:34:00 10° ESE visible
30 Mar -1.3 05:35:22 15° NNW 05:37:22 26° NNE 05:40:10 10° E visible
31 Mar -0.1 04:44:48 14° NE 04:44:48 14° NE 04:45:52 10° ENE visible
31 Mar -3.3 06:17:26 11° WNW 06:20:24 56° SW 06:23:33 10° SE visible
01 Apr -2.9 05:27:08 61° ENE 05:27:08 61° ENE 05:30:09 10° ESE visible
02 Apr -2.0 06:09:49 21° SW 06:09:49 21° SW 06:12:09 10° S visible
02 Apr -2.9 21:07:05 10° SSW 21:09:51 42° SSE 21:09:51 42° SSE visible
03 Apr -1.9 20:14:19 10° S 20:16:47 20° SE 20:19:18 10° E visible
03 Apr -1.4 21:50:05 10° W 21:52:41 30° NW 21:52:41 30° NW visible
04 Apr -3.0 20:56:12 10° SW 20:59:25 66° NW 21:02:30 11° NE visible
05 Apr -0.5 21:40:16 10° WNW 21:42:29 17° NNW 21:44:36 10° NNE visible
06 Apr -1.3 20:45:48 10° W 20:48:41 28° NW 20:51:33 10° NNE visible
